Location: Borealis Mine
(38.3824°N, 118.7610°W)
Time: 11:06:30
(UTC+00:00)

N. Korean satellite - Visible Passes

Search period start: 20 January 2022 00:00
Search period end: 30 January 2022 00:00
Orbit: 446 x 491 km, 97.3° (Epoch: 19 January)

Date Brightness Start Highest point End Pass type
(mag) Time Alt. Az. Time Alt. Az. Time Alt. Az.
20 Jan 9.0 13:28:15 10° N 13:36:09 - SSW 13:28:33 12° N visible
21 Jan 9.2 12:59:04 10° NNE 13:06:46 - S 12:59:27 13° NNE visible
22 Jan 9.7 12:37:20 - SSE 12:37:20 - SSE 12:30:21 10° NE visible
22 Jan 8.7 14:03:55 10° NNW 14:11:23 - SW 14:04:25 12° NNW visible
23 Jan10.312:07:54SE12:07:54SE12:01:15NEvisible
23 Jan 8.3 13:33:59 10° N 13:41:56 - SSW 13:35:19 20° NNW visible
24 Jan 8.3 13:04:39 10° NNE 13:12:27 - S 13:06:12 24° NNE visible
25 Jan 9.1 12:35:49 10° NE 12:42:58 - SSE 12:37:06 18° NE visible
25 Jan 8.4 14:09:45 10° NNW 14:11:09 14° NW 14:11:09 14° NW visible
26 Jan 10.0 12:07:55 10° ENE 12:13:26 - SE 12:07:59 10° ENE visible
26 Jan 7.5 13:39:35 10° N 13:47:27 - SW 13:42:03 29° NW visible
27 Jan 6.9 13:10:06 10° N 13:17:53 - SSW 13:12:57 53° N visible
28 Jan 8.2 12:41:05 10° NNE 12:48:16 - SSE 12:43:51 33° ENE visible
28 Jan 8.4 14:15:30 10° NW 14:17:14 13° WNW 14:17:55 13° W visible
29 Jan 9.6 12:12:52 10° NE 12:18:37 - SE 12:14:46 15° E visible
29 Jan 7.4 13:45:01 10° NNW 13:48:11 29° WNW 13:48:51 27° W visible
